COSMOS 2157

Satellite information

Favourite Embed

Satellite Type and Status

PAYLOADIN ORBIT

Key statistics

Satellite COSMOS 2157 at a glance.

Uptime

12276

Days in orbit

Revolutions

≈ 12.6

Per day

Orbit

LEO

Low Earth Orbit

Inclination

82.6

Latest

Satellite identification and parameters

Extended collection of information and parameters for COSMOS 2157.

Object identification

Identified? True

Debris? False

Object name: COSMOS 2157

International designator: 1991-068A

Object number (NORAD): 21728

Object ID (CCSDS): 21728

Country: COMMONWEALTH OF INDEPENDENT STATES (CIS)

Current information (Y/N): Y

RCS size: MEDIUM

Orbital parameters

Period: 113.993 minutes

Inclination: 82.5817 deg

SMA: 7787.746 km

Apoapsis: 1412.905 km

Periapsis: 1406.317 km

RAAN: 216.8893 deg

Eccentricy: 0.000423

Argument of periapsis: 357.1594 deg

Mean anomaly: 2.9473 deg

Mean motion: 12.63237719 rev/day

Mean motion (dot): 0.00000012 rev/day2

B* drag term: 0.0000078607 1/REarth

Two-line elements (TLE)

Creation date: May 8, 2025, 3:01 a.m.

Reference frame: TEME

Reference center: EARTH

Epoch: May 7, 2025, 6:06 p.m. UTC

TLE line 0: 0 COSMOS 2157

TLE line 1: 1 21728U 91068A 25127.75449611 .00000012 00000-0 78607-5 0 9994

TLE line 2: 2 21728 82.5817 216.8893 0004230 357.1594 2.9473 12.63237719549524

Live tracking on map

Real-time ground track for satellite COSMOS 2157.

In-orbit conjunctions

There are no conjunctions computed for COSMOS 2157, at the moment. Check back to stay up to date, as we update our databases every day.

Go to all conjunctions

Associated space launch

Second generation store-dump military communications satellite

COSMOS 2157 was lifted into orbit during the mission ‘Tsiklon-3 | Strela-3 67 to 72’, on board a Tsiklon-3 space rocket.

The launch took place on Sept. 28, 1991, 7:05 a.m. from 32/2.

For more information about the launch, click the button.

Launch to space Tsiklon-3 | Strela-3 67 to 72
Tsiklon-3 | Strela-3 67 to 72

Agency: N/A

Status: Launch Successful

Launch date: Sept. 28, 1991, 7:05 a.m. UTC

Rocket: Tsiklon-3

Launch pad: 32/2

Location: Plesetsk Cosmodrome, Russian Federation

...

Latest news about this satellite

There are no fresh news available about this satellite. Check back as we update our databases every day.


Newsletter sign-up

Weekly statistics, charts and insights to help you stay on top of the space industry.